Regional Weather Roundup
Issued by NWS Northern Indiana

Home | Current Version | Previous Version | Text Only | Print | Product List | Glossary Off
Versions: 1 2 3 4 5 6 7 8 9 10 11 12 13 14 15 16 17 18 19 20 21 22 23 24 25 26 27 28 29 30 31 32 33 34 35 36 37 38 39 40 41 42 43 44 45 46 47 48 49 50

000
ASUS43 KIWX 270910
RWRIWX

KIWX WEATHER ROUNDUP
NATIONAL WEATHER SERVICE NORTHERN INDIANA
500 AM EDT TUE JUN 27 2017

NOTE: "FAIR" INDICATES FEW OR NO CLOUDS BELOW 12,000 FEET WITH NO
SIGNIFICANT WEATHER AND/OR OBSTRUCTIONS TO VISIBILITY.

* THESE STATIONS ARE NOT UNDER NWS QUALITY CONTROL. THEY ALSO MAY NOT
  REPORT WEATHER SUCH AS PRECIPITATION OR FOG.

INZ001>027-271000-
NORTHERN INDIANA

CITY           SKY/WX    TMP DP  RH WIND       PRES   REMARKS
GARY*          CLEAR     49  45  87 W3        30.11R
VALPARAISO     CLEAR     52  46  80 W6        30.10S
MICHIGAN CITY* CLEAR     55  48  76 NW3       30.10R
LAPORTE*       CLEAR     48  47  94 CALM      30.10R
KNOX*          CLEAR     50  43  76 W3        30.09S
SOUTH BEND     PTCLDY    49  47  93 W3        30.09R
GOSHEN         CLEAR     50  45  83 W5        30.08R
MONTICELLO*    CLEAR     51  49  93 CALM      30.10S
ROCHESTER*     CLEAR     54  50  87 W5        30.10R
WARSAW*        CLEAR     50  46  87 W5        30.08S
AUBURN*        CLEAR     50  45  81 CALM      30.07R
FORT WAYNE     PTCLDY    53  48  83 W8        30.07S
HUNTINGTON*    CLEAR     50  49  96 W5        30.08S
PERU/GRISSOM   CLEAR     51  50  99 W6        30.09R
MARION*        CLEAR     50  48  93 W3        30.10S

$$
INZ028>050-271000-
CENTRAL INDIANA

CITY           SKY/WX    TMP DP  RH WIND       PRES   REMARKS
LAFAYETTE      FOG       48  48 100 W3        30.11S VSB 1/4
KOKOMO*        CLEAR     51  49  92 W5        30.11R
MUNCIE*        CLEAR     53  50  89 W5        30.09S
INDIANAPOLIS   CLEAR     51  48  89 W6        30.10F

$$
MIZ043>046-050>051-056>058-064>065-071>073-077>080-271000-
SOUTHWEST LOWER MICHIGAN

CITY           SKY/WX    TMP DP  RH WIND       PRES   REMARKS
BATTLE CREEK   CLEAR     48  47  96 W5        30.06R
BENTON HARBOR  PTCLDY    57  49  74 NW3       30.08R
COLDWATER*     PTCLDY    49  47  93 W5        30.06R
HILLSDALE*     MOCLDY    50  45  81 W6        30.04R
HOLLAND        CLEAR     49  46  90 CALM      30.07S
GRAND RAPIDS   CLEAR     51  50  96 W6        30.05S
KALAMAZOO      CLEAR     51  46  83 NW7       30.07R
STURGIS*       MOCLDY    49  47  93 CALM      30.06R
THREE RIVERS*  FAIR      50  46  87 NW3       30.07S

$$
OHZ001>008-015>018-024>025-271000-
NORTHWEST OHIO

CITY           SKY/WX    TMP DP  RH WIND       PRES   REMARKS
WAUSEON*       FAIR      50  46  87 W6        30.04S
DEFIANCE       CLEAR     48  45  89 SW3       30.06R
FINDLAY        CLEAR     51  45  79 W5        30.05R
TOLEDO EXPRESS CLEAR     49  47  93 SW7       30.04R
TOLEDO METCALF CLEAR     52  47  83 W9        30.04S
LIMA           CLEAR     52  48  86 W6        30.06S

$$
AND FOR LAKE MICHIGAN COASTAL AND OPEN LAKE BUOY OBSERVATIONS

STATION/POSITION TEMP    WIND        PRES    VSBY  WAVE
                 AIR SEA DIR/SP/G                  HT/PER
                 (F)     (DEG/KT/KT) (MB)    (MI)  (FT/S)
CALUMET HARBOR    56     250/  2/  3 1018.7S
MICHIGAN CITY     59     320/ 12/ 16   N/A
BURNS HARBOR      61     330/ 10/ 12 1019.6R
SOUTH LAKE BUOY   59 61  300/  8/  8 1018.3F         2/ 5
4 MI NW BRIDGMAN  60 68  360/ 10/ 16 1019.0          4/ 5
MICHIGAN CITY     60 65  330/ 10/ 16   N/A           4/ 5

$$
&&




USA.gov is the U.S. government's official web portal to all federal, state and local government web resources and services.